owner,sensor,date,latitude,longitude,vertical_datum,sea_water_practical_salinity,qcFlag 
DISL,ioos:station:DISL:DISL:1,2013-11-01T00:00:00Z,30.2513,-88.0778,2.402,31.24,1111122 
DISL,ioos:station:DISL:DISL:1,2013-11-01T00:30:00Z,30.2513,-88.0778,2.406,31.05,1111122 
DISL,ioos:station:DISL:DISL:1,2013-11-01T01:00:00Z,30.2513,-88.0778,2.416,30.42,1111122 
DISL,ioos:station:DISL:DISL:1,2013-11-01T01:30:00Z,30.2513,-88.0778,2.432,30.24,1111122 
DISL,ioos:station:DISL:DISL:1,2013-11-01T02:00:00Z,30.2513,-88.0778,2.441,29.81,1111122 
DISL,ioos:station:DISL:DISL:1,2013-11-01T02:30:00Z,30.2513,-88.0778,2.441,30.28,1111122 
DISL,ioos:station:DISL:DISL:1,2013-11-01T03:00:00Z,30.2513,-88.0778,2.439,30.88,1111122 
DISL,ioos:station:DISL:DISL:1,2013-11-01T03:30:00Z,30.2513,-88.0778,2.449,29.61,1111122 
DISL,ioos:station:DISL:DISL:1,2013-11-01T04:00:00Z,30.2513,-88.0778,2.432,28.94,1111122 
DISL,ioos:station:DISL:DISL:1,2013-11-01T04:30:00Z,30.2513,-88.0778,2.422,28.3,1111122 
DISL,ioos:station:DISL:DISL:1,2013-11-01T05:00:00Z,30.2513,-88.0778,2.412,28.19,1111122 
DISL,ioos:station:DISL:DISL:1,2013-11-01T05:30:00Z,30.2513,-88.0778,2.373,29.16,1111122 
DISL,ioos:station:DISL:DISL:1,2013-11-01T06:00:00Z,30.2513,-88.0778,2.366,29.75,1111122 
DISL,ioos:station:DISL:DISL:1,2013-11-01T06:30:00Z,30.2513,-88.0778,2.325,29.45,1111122 
DISL,ioos:station:DISL:DISL:1,2013-11-01T07:00:00Z,30.2513,-88.0778,2.306,28.28,1111122 
DISL,ioos:station:DISL:DISL:1,2013-11-01T07:30:00Z,30.2513,-88.0778,2.301,29.73,1111122 
DISL,ioos:station:DISL:DISL:1,2013-11-01T08:00:00Z,30.2513,-88.0778,2.32,30.17,1111122 
DISL,ioos:station:DISL:DISL:1,2013-11-01T08:30:00Z,30.2513,-88.0778,2.294,30.5,1111122 
DISL,ioos:station:DISL:DISL:1,2013-11-01T09:00:00Z,30.2513,-88.0778,2.287,30.56,1111122 
DISL,ioos:station:DISL:DISL:1,2013-11-01T09:30:00Z,30.2513,-88.0778,2.272,30.51,1111122 
DISL,ioos:station:DISL:DISL:1,2013-11-01T10:00:00Z,30.2513,-88.0778,2.24,30.4,1111122 
DISL,ioos:station:DISL:DISL:1,2013-11-01T10:30:00Z,30.2513,-88.0778,2.293,30.47,1111122 
DISL,ioos:station:DISL:DISL:1,2013-11-01T11:00:00Z,30.2513,-88.0778,2.259,30.12,1111122 
DISL,ioos:station:DISL:DISL:1,2013-11-01T11:30:00Z,30.2513,-88.0778,2.212,30.3,1111122 
DISL,ioos:station:DISL:DISL:1,2013-11-01T12:00:00Z,30.2513,-88.0778,2.219,30.47,1111122 
DISL,ioos:station:DISL:DISL:1,2013-11-01T12:30:00Z,30.2513,-88.0778,2.234,30.3,1111122 
DISL,ioos:station:DISL:DISL:1,2013-11-01T13:00:00Z,30.2513,-88.0778,2.288,28.69,1111122 
DISL,ioos:station:DISL:DISL:1,2013-11-01T13:30:00Z,30.2513,-88.0778,2.321,28.87,1111122 
DISL,ioos:station:DISL:DISL:1,2013-11-01T14:00:00Z,30.2513,-88.0778,2.28,29.31,1111122 
DISL,ioos:station:DISL:DISL:1,2013-11-01T14:30:00Z,30.2513,-88.0778,2.247,30.0,1111122 
DISL,ioos:station:DISL:DISL:1,2013-11-01T15:00:00Z,30.2513,-88.0778,2.143,29.97,1111122 
DISL,ioos:station:DISL:DISL:1,2013-11-01T15:30:00Z,30.2513,-88.0778,2.231,29.19,1111122 
DISL,ioos:station:DISL:DISL:1,2013-11-01T16:00:00Z,30.2513,-88.0778,2.224,28.0,1111122 
DISL,ioos:station:DISL:DISL:1,2013-11-01T16:30:00Z,30.2513,-88.0778,2.048,27.47,1111122 
DISL,ioos:station:DISL:DISL:1,2013-11-01T17:00:00Z,30.2513,-88.0778,2.261,26.26,1111122 
DISL,ioos:station:DISL:DISL:1,2013-11-01T17:30:00Z,30.2513,-88.0778,2.227,26.14,1111122 
DISL,ioos:station:DISL:DISL:1,2013-11-01T18:00:00Z,30.2513,-88.0778,2.211,28.87,1111122 
DISL,ioos:station:DISL:DISL:1,2013-11-01T18:30:00Z,30.2513,-88.0778,2.176,29.46,1111122 
DISL,ioos:station:DISL:DISL:1,2013-11-01T19:00:00Z,30.2513,-88.0778,2.191,27.32,1111122 
DISL,ioos:station:DISL:DISL:1,2013-11-01T19:30:00Z,30.2513,-88.0778,2.123,26.94,1111122 
DISL,ioos:station:DISL:DISL:1,2013-11-01T20:00:00Z,30.2513,-88.0778,2.104,28.07,1111122 
DISL,ioos:station:DISL:DISL:1,2013-11-01T20:30:00Z,30.2513,-88.0778,2.188,27.97,1111122 
DISL,ioos:station:DISL:DISL:1,2013-11-01T21:00:00Z,30.2513,-88.0778,2.22,27.9,1111122 
DISL,ioos:station:DISL:DISL:1,2013-11-01T21:30:00Z,30.2513,-88.0778,2.255,27.55,1111122 
DISL,ioos:station:DISL:DISL:1,2013-11-01T22:00:00Z,30.2513,-88.0778,2.337,27.45,1111122 
DISL,ioos:station:DISL:DISL:1,2013-11-01T22:30:00Z,30.2513,-88.0778,2.34,27.43,1111122 
DISL,ioos:station:DISL:DISL:1,2013-11-01T23:00:00Z,30.2513,-88.0778,2.447,27.3,1111122 
DISL,ioos:station:DISL:DISL:1,2013-11-01T23:30:00Z,30.2513,-88.0778,2.462,26.85,1111122 
DISL,ioos:station:DISL:DISL:1,2013-11-02T00:00:00Z,30.2513,-88.0778,2.453,26.63,1111122 
DISL,ioos:station:DISL:DISL:1,2013-11-02T00:30:00Z,30.2513,-88.0778,2.473,26.69,1111122 
DISL,ioos:station:DISL:DISL:1,2013-11-02T01:00:00Z,30.2513,-88.0778,2.462,26.79,1111122 
DISL,ioos:station:DISL:DISL:1,2013-11-02T01:30:00Z,30.2513,-88.0778,2.479,26.84,1111122 
DISL,ioos:station:DISL:DISL:1,2013-11-02T02:00:00Z,30.2513,-88.0778,2.469,26.87,1111122 
DISL,ioos:station:DISL:DISL:1,2013-11-02T02:30:00Z,30.2513,-88.0778,2.496,26.82,1111122 
DISL,ioos:station:DISL:DISL:1,2013-11-02T03:00:00Z,30.2513,-88.0778,2.498,26.85,1111122 
DISL,ioos:station:DISL:DISL:1,2013-11-02T03:30:00Z,30.2513,-88.0778,2.513,26.89,1111122 
DISL,ioos:station:DISL:DISL:1,2013-11-02T04:00:00Z,30.2513,-88.0778,2.501,26.77,1111122 
DISL,ioos:station:DISL:DISL:1,2013-11-02T04:30:00Z,30.2513,-88.0778,2.484,26.75,1111122 
DISL,ioos:station:DISL:DISL:1,2013-11-02T05:00:00Z,30.2513,-88.0778,2.477,25.12,1111122 
DISL,ioos:station:DISL:DISL:1,2013-11-02T05:30:00Z,30.2513,-88.0778,2.433,25.6,1111122 
DISL,ioos:station:DISL:DISL:1,2013-11-02T06:00:00Z,30.2513,-88.0778,2.422,25.6,1111122 
DISL,ioos:station:DISL:DISL:1,2013-11-02T06:30:00Z,30.2513,-88.0778,2.378,25.57,1111122 
DISL,ioos:station:DISL:DISL:1,2013-11-02T07:00:00Z,30.2513,-88.0778,2.361,25.65,1111122 
DISL,ioos:station:DISL:DISL:1,2013-11-02T07:30:00Z,30.2513,-88.0778,2.358,25.57,1111122 
DISL,ioos:station:DISL:DISL:1,2013-11-02T08:00:00Z,30.2513,-88.0778,2.334,25.61,1111122 
DISL,ioos:station:DISL:DISL:1,2013-11-02T08:30:00Z,30.2513,-88.0778,2.307,25.66,1111122 
DISL,ioos:station:DISL:DISL:1,2013-11-02T09:00:00Z,30.2513,-88.0778,2.263,26.03,1111122 
DISL,ioos:station:DISL:DISL:1,2013-11-02T09:30:00Z,30.2513,-88.0778,2.238,26.33,1111122 
DISL,ioos:station:DISL:DISL:1,2013-11-02T10:00:00Z,30.2513,-88.0778,2.235,26.41,1111122 
DISL,ioos:station:DISL:DISL:1,2013-11-02T10:30:00Z,30.2513,-88.0778,2.181,26.43,1111122 
DISL,ioos:station:DISL:DISL:1,2013-11-02T11:00:00Z,30.2513,-88.0778,2.233,26.5,1111122 
DISL,ioos:station:DISL:DISL:1,2013-11-02T11:30:00Z,30.2513,-88.0778,2.225,26.56,1111122 
DISL,ioos:station:DISL:DISL:1,2013-11-02T12:00:00Z,30.2513,-88.0778,2.21,26.57,1111122 
DISL,ioos:station:DISL:DISL:1,2013-11-02T12:30:00Z,30.2513,-88.0778,2.186,26.33,1111122 
DISL,ioos:station:DISL:DISL:1,2013-11-02T13:00:00Z,30.2513,-88.0778,2.215,25.92,1111122 
DISL,ioos:station:DISL:DISL:1,2013-11-02T13:30:00Z,30.2513,-88.0778,2.21,26.06,1111122 
DISL,ioos:station:DISL:DISL:1,2013-11-02T14:00:00Z,30.2513,-88.0778,2.189,26.15,1111122 
DISL,ioos:station:DISL:DISL:1,2013-11-02T14:30:00Z,30.2513,-88.0778,2.156,26.19,1111122 
DISL,ioos:station:DISL:DISL:1,2013-11-02T15:00:00Z,30.2513,-88.0778,2.216,26.21,1111122 
DISL,ioos:station:DISL:DISL:1,2013-11-02T15:30:00Z,30.2513,-88.0778,2.18,25.76,1111122 
DISL,ioos:station:DISL:DISL:1,2013-11-02T16:00:00Z,30.2513,-88.0778,2.193,25.85,1111122 
DISL,ioos:station:DISL:DISL:1,2013-11-02T16:30:00Z,30.2513,-88.0778,2.189,26.26,1111122 
DISL,ioos:station:DISL:DISL:1,2013-11-02T17:00:00Z,30.2513,-88.0778,2.174,27.5,1111122 
DISL,ioos:station:DISL:DISL:1,2013-11-02T17:30:00Z,30.2513,-88.0778,2.177,26.88,1111122 
DISL,ioos:station:DISL:DISL:1,2013-11-02T18:00:00Z,30.2513,-88.0778,2.141,26.09,1111122 
DISL,ioos:station:DISL:DISL:1,2013-11-02T18:30:00Z,30.2513,-88.0778,2.131,26.13,1111122 
DISL,ioos:station:DISL:DISL:1,2013-11-02T19:00:00Z,30.2513,-88.0778,2.147,26.26,1111122 
DISL,ioos:station:DISL:DISL:1,2013-11-02T19:30:00Z,30.2513,-88.0778,2.245,26.21,1111122 
DISL,ioos:station:DISL:DISL:1,2013-11-02T20:00:00Z,30.2513,-88.0778,2.26,26.13,1111122 
DISL,ioos:station:DISL:DISL:1,2013-11-02T20:30:00Z,30.2513,-88.0778,2.264,26.02,1111122 
DISL,ioos:station:DISL:DISL:1,2013-11-02T21:00:00Z,30.2513,-88.0778,2.303,26.02,1111122 
DISL,ioos:station:DISL:DISL:1,2013-11-02T21:30:00Z,30.2513,-88.0778,2.461,26.02,1111122 
DISL,ioos:station:DISL:DISL:1,2013-11-02T22:00:00Z,30.2513,-88.0778,2.348,26.13,1111122 
DISL,ioos:station:DISL:DISL:1,2013-11-02T22:30:00Z,30.2513,-88.0778,2.448,26.23,1111122 
DISL,ioos:station:DISL:DISL:1,2013-11-02T23:00:00Z,30.2513,-88.0778,2.429,26.22,1111122 
DISL,ioos:station:DISL:DISL:1,2013-11-02T23:30:00Z,30.2513,-88.0778,2.437,26.32,1111122 
DISL,ioos:station:DISL:DISL:1,2013-11-03T00:00:00Z,30.2513,-88.0778,2.42,26.45,1111122 
DISL,ioos:station:DISL:DISL:1,2013-11-03T00:30:00Z,30.2513,-88.0778,2.427,26.51,1111122 
DISL,ioos:station:DISL:DISL:1,2013-11-03T01:00:00Z,30.2513,-88.0778,2.429,26.51,1111122 
DISL,ioos:station:DISL:DISL:1,2013-11-03T01:30:00Z,30.2513,-88.0778,2.439,26.57,1111122 
DISL,ioos:station:DISL:DISL:1,2013-11-03T02:00:00Z,30.2513,-88.0778,2.435,26.58,1111122 
DISL,ioos:station:DISL:DISL:1,2013-11-03T02:30:00Z,30.2513,-88.0778,2.446,26.58,1111122 
DISL,ioos:station:DISL:DISL:1,2013-11-03T03:00:00Z,30.2513,-88.0778,2.464,26.64,1111122 
DISL,ioos:station:DISL:DISL:1,2013-11-03T03:30:00Z,30.2513,-88.0778,2.469,25.77,1111122 
DISL,ioos:station:DISL:DISL:1,2013-11-03T04:00:00Z,30.2513,-88.0778,2.515,26.49,1111122 
DISL,ioos:station:DISL:DISL:1,2013-11-03T04:30:00Z,30.2513,-88.0778,2.392,26.66,1111122 
DISL,ioos:station:DISL:DISL:1,2013-11-03T05:00:00Z,30.2513,-88.0778,2.424,24.9,1111122 
DISL,ioos:station:DISL:DISL:1,2013-11-03T05:30:00Z,30.2513,-88.0778,2.389,24.43,1111122 
DISL,ioos:station:DISL:DISL:1,2013-11-03T06:00:00Z,30.2513,-88.0778,2.354,24.54,1111122 
DISL,ioos:station:DISL:DISL:1,2013-11-03T06:30:00Z,30.2513,-88.0778,2.323,24.46,1111122 
DISL,ioos:station:DISL:DISL:1,2013-11-03T07:00:00Z,30.2513,-88.0778,2.27,24.49,1111122 
DISL,ioos:station:DISL:DISL:1,2013-11-03T07:30:00Z,30.2513,-88.0778,2.339,24.57,1111122 
DISL,ioos:station:DISL:DISL:1,2013-11-03T08:00:00Z,30.2513,-88.0778,2.243,24.6,1111122 
DISL,ioos:station:DISL:DISL:1,2013-11-03T08:30:00Z,30.2513,-88.0778,2.23,24.38,1111122 
DISL,ioos:station:DISL:DISL:1,2013-11-03T09:00:00Z,30.2513,-88.0778,2.298,23.95,1111122 
DISL,ioos:station:DISL:DISL:1,2013-11-03T09:30:00Z,30.2513,-88.0778,2.198,23.83,1111122 
DISL,ioos:station:DISL:DISL:1,2013-11-03T10:00:00Z,30.2513,-88.0778,2.156,23.78,1111122 
DISL,ioos:station:DISL:DISL:1,2013-11-03T10:30:00Z,30.2513,-88.0778,2.162,23.85,1111122 
DISL,ioos:station:DISL:DISL:1,2013-11-03T11:00:00Z,30.2513,-88.0778,2.1,24.08,1111122 
DISL,ioos:station:DISL:DISL:1,2013-11-03T11:30:00Z,30.2513,-88.0778,1.994,24.15,1111122 
DISL,ioos:station:DISL:DISL:1,2013-11-03T12:00:00Z,30.2513,-88.0778,2.143,24.19,1111122 
DISL,ioos:station:DISL:DISL:1,2013-11-03T12:30:00Z,30.2513,-88.0778,2.051,24.2,1111122 
DISL,ioos:station:DISL:DISL:1,2013-11-03T13:00:00Z,30.2513,-88.0778,2.108,24.34,1111122 
DISL,ioos:station:DISL:DISL:1,2013-11-03T13:30:00Z,30.2513,-88.0778,2.248,24.31,1111122 
DISL,ioos:station:DISL:DISL:1,2013-11-03T14:00:00Z,30.2513,-88.0778,2.221,24.29,1111122 
DISL,ioos:station:DISL:DISL:1,2013-11-03T14:30:00Z,30.2513,-88.0778,2.164,24.38,1111122 
DISL,ioos:station:DISL:DISL:1,2013-11-03T15:00:00Z,30.2513,-88.0778,2.157,25.19,1111122 
DISL,ioos:station:DISL:DISL:1,2013-11-03T15:30:00Z,30.2513,-88.0778,2.09,26.04,1111122 
DISL,ioos:station:DISL:DISL:1,2013-11-03T16:00:00Z,30.2513,-88.0778,2.183,25.53,1111122 
DISL,ioos:station:DISL:DISL:1,2013-11-03T16:30:00Z,30.2513,-88.0778,2.262,24.81,1111122 
DISL,ioos:station:DISL:DISL:1,2013-11-03T17:00:00Z,30.2513,-88.0778,2.186,24.6,1111122 
DISL,ioos:station:DISL:DISL:1,2013-11-03T17:30:00Z,30.2513,-88.0778,2.21,24.45,1111122 
DISL,ioos:station:DISL:DISL:1,2013-11-03T18:00:00Z,30.2513,-88.0778,2.213,24.36,1111122 
DISL,ioos:station:DISL:DISL:1,2013-11-03T18:30:00Z,30.2513,-88.0778,2.21,24.69,1111122 
DISL,ioos:station:DISL:DISL:1,2013-11-03T19:00:00Z,30.2513,-88.0778,2.236,24.76,1111122 
DISL,ioos:station:DISL:DISL:1,2013-11-03T19:30:00Z,30.2513,-88.0778,2.18,24.66,1111122 
DISL,ioos:station:DISL:DISL:1,2013-11-03T20:00:00Z,30.2513,-88.0778,2.333,24.81,1111122 
DISL,ioos:station:DISL:DISL:1,2013-11-03T20:30:00Z,30.2513,-88.0778,2.349,27.36,1111122 
DISL,ioos:station:DISL:DISL:1,2013-11-03T21:00:00Z,30.2513,-88.0778,2.34,28.73,1111122 
DISL,ioos:station:DISL:DISL:1,2013-11-03T21:30:00Z,30.2513,-88.0778,2.317,29.65,1111122 
DISL,ioos:station:DISL:DISL:1,2013-11-03T22:00:00Z,30.2513,-88.0778,2.381,30.57,1111122 
DISL,ioos:station:DISL:DISL:1,2013-11-03T22:30:00Z,30.2513,-88.0778,2.46,31.47,1111122 
DISL,ioos:station:DISL:DISL:1,2013-11-03T23:00:00Z,30.2513,-88.0778,2.486,30.92,1111122 
DISL,ioos:station:DISL:DISL:1,2013-11-03T23:30:00Z,30.2513,-88.0778,2.464,30.87,1111122 
DISL,ioos:station:DISL:DISL:1,2013-11-04T00:00:00Z,30.2513,-88.0778,2.452,30.53,1111122 
DISL,ioos:station:DISL:DISL:1,2013-11-04T00:30:00Z,30.2513,-88.0778,2.473,30.24,1111122 
DISL,ioos:station:DISL:DISL:1,2013-11-04T01:00:00Z,30.2513,-88.0778,2.494,30.3,1111122 
DISL,ioos:station:DISL:DISL:1,2013-11-04T01:30:00Z,30.2513,-88.0778,2.52,29.99,1111122 
DISL,ioos:station:DISL:DISL:1,2013-11-04T02:00:00Z,30.2513,-88.0778,2.537,30.26,1111122 
DISL,ioos:station:DISL:DISL:1,2013-11-04T02:30:00Z,30.2513,-88.0778,2.556,29.85,1111122 
DISL,ioos:station:DISL:DISL:1,2013-11-04T03:00:00Z,30.2513,-88.0778,2.585,27.51,1111122 
DISL,ioos:station:DISL:DISL:1,2013-11-04T03:30:00Z,30.2513,-88.0778,2.621,26.46,1111122 
DISL,ioos:station:DISL:DISL:1,2013-11-04T04:00:00Z,30.2513,-88.0778,2.622,26.08,1111122 
DISL,ioos:station:DISL:DISL:1,2013-11-04T04:30:00Z,30.2513,-88.0778,2.63,25.97,1111122 
DISL,ioos:station:DISL:DISL:1,2013-11-04T05:00:00Z,30.2513,-88.0778,2.631,25.98,1111122 
DISL,ioos:station:DISL:DISL:1,2013-11-04T05:30:00Z,30.2513,-88.0778,2.603,25.27,1111122 
DISL,ioos:station:DISL:DISL:1,2013-11-04T06:00:00Z,30.2513,-88.0778,2.663,24.46,1111122 
DISL,ioos:station:DISL:DISL:1,2013-11-04T06:30:00Z,30.2513,-88.0778,2.467,24.25,1111122 
DISL,ioos:station:DISL:DISL:1,2013-11-04T07:00:00Z,30.2513,-88.0778,2.592,24.25,1111122 
DISL,ioos:station:DISL:DISL:1,2013-11-04T07:30:00Z,30.2513,-88.0778,2.469,24.35,1111122 
DISL,ioos:station:DISL:DISL:1,2013-11-04T08:00:00Z,30.2513,-88.0778,2.487,24.32,1111122 
DISL,ioos:station:DISL:DISL:1,2013-11-04T08:30:00Z,30.2513,-88.0778,2.399,24.37,1111122 
DISL,ioos:station:DISL:DISL:1,2013-11-04T09:00:00Z,30.2513,-88.0778,2.318,24.42,1111122 
DISL,ioos:station:DISL:DISL:1,2013-11-04T09:30:00Z,30.2513,-88.0778,2.308,24.57,1111122 
DISL,ioos:station:DISL:DISL:1,2013-11-04T10:00:00Z,30.2513,-88.0778,2.192,24.76,1111122 
DISL,ioos:station:DISL:DISL:1,2013-11-04T10:30:00Z,30.2513,-88.0778,2.371,24.96,1111122 
DISL,ioos:station:DISL:DISL:1,2013-11-04T11:00:00Z,30.2513,-88.0778,2.313,25.02,1111122 
DISL,ioos:station:DISL:DISL:1,2013-11-04T11:30:00Z,30.2513,-88.0778,2.234,25.03,1111122 
DISL,ioos:station:DISL:DISL:1,2013-11-04T12:00:00Z,30.2513,-88.0778,2.279,24.91,1111122 
DISL,ioos:station:DISL:DISL:1,2013-11-04T12:30:00Z,30.2513,-88.0778,2.198,24.76,1111122 
DISL,ioos:station:DISL:DISL:1,2013-11-04T13:00:00Z,30.2513,-88.0778,2.122,24.69,1111122 
DISL,ioos:station:DISL:DISL:1,2013-11-04T13:30:00Z,30.2513,-88.0778,2.162,24.67,1111122 
DISL,ioos:station:DISL:DISL:1,2013-11-04T14:00:00Z,30.2513,-88.0778,2.17,24.54,1111122 
DISL,ioos:station:DISL:DISL:1,2013-11-04T14:30:00Z,30.2513,-88.0778,2.128,24.46,1111122 
DISL,ioos:station:DISL:DISL:1,2013-11-04T15:00:00Z,30.2513,-88.0778,2.162,24.46,1111122 
DISL,ioos:station:DISL:DISL:1,2013-11-04T15:30:00Z,30.2513,-88.0778,2.134,25.13,1111122 
DISL,ioos:station:DISL:DISL:1,2013-11-04T16:00:00Z,30.2513,-88.0778,2.073,25.18,1111122 
DISL,ioos:station:DISL:DISL:1,2013-11-04T16:30:00Z,30.2513,-88.0778,2.127,25.45,1111122 
DISL,ioos:station:DISL:DISL:1,2013-11-04T17:00:00Z,30.2513,-88.0778,2.182,25.39,1111122 
DISL,ioos:station:DISL:DISL:1,2013-11-04T17:30:00Z,30.2513,-88.0778,2.192,25.3,1111122 
DISL,ioos:station:DISL:DISL:1,2013-11-04T18:00:00Z,30.2513,-88.0778,2.237,25.23,1111122 
DISL,ioos:station:DISL:DISL:1,2013-11-04T18:30:00Z,30.2513,-88.0778,2.123,24.98,1111122 
DISL,ioos:station:DISL:DISL:1,2013-11-04T19:00:00Z,30.2513,-88.0778,2.161,24.97,1111122 
DISL,ioos:station:DISL:DISL:1,2013-11-04T19:30:00Z,30.2513,-88.0778,2.128,24.92,1111122 
DISL,ioos:station:DISL:DISL:1,2013-11-04T20:00:00Z,30.2513,-88.0778,2.138,25.01,1111122 
DISL,ioos:station:DISL:DISL:1,2013-11-04T20:30:00Z,30.2513,-88.0778,2.185,25.0,1111122 
DISL,ioos:station:DISL:DISL:1,2013-11-04T21:00:00Z,30.2513,-88.0778,2.19,24.89,1111122 
DISL,ioos:station:DISL:DISL:1,2013-11-04T21:30:00Z,30.2513,-88.0778,2.241,25.12,1111122 
DISL,ioos:station:DISL:DISL:1,2013-11-04T22:00:00Z,30.2513,-88.0778,2.283,25.28,1111122 
DISL,ioos:station:DISL:DISL:1,2013-11-04T22:30:00Z,30.2513,-88.0778,2.333,26.99,1111122 
DISL,ioos:station:DISL:DISL:1,2013-11-04T23:00:00Z,30.2513,-88.0778,2.375,27.72,1111122 
DISL,ioos:station:DISL:DISL:1,2013-11-04T23:30:00Z,30.2513,-88.0778,2.363,27.83,1111122 
DISL,ioos:station:DISL:DISL:1,2013-11-05T00:00:00Z,30.2513,-88.0778,2.427,27.5,1111122 
DISL,ioos:station:DISL:DISL:1,2013-11-05T00:30:00Z,30.2513,-88.0778,2.462,27.22,1111122 
DISL,ioos:station:DISL:DISL:1,2013-11-05T01:00:00Z,30.2513,-88.0778,2.487,26.82,1111122 
DISL,ioos:station:DISL:DISL:1,2013-11-05T01:30:00Z,30.2513,-88.0778,2.488,27.82,1111122 
DISL,ioos:station:DISL:DISL:1,2013-11-05T02:00:00Z,30.2513,-88.0778,2.509,27.58,1111122 
DISL,ioos:station:DISL:DISL:1,2013-11-05T02:30:00Z,30.2513,-88.0778,2.567,27.32,1111122 
DISL,ioos:station:DISL:DISL:1,2013-11-05T03:00:00Z,30.2513,-88.0778,2.546,26.66,1111122 
DISL,ioos:station:DISL:DISL:1,2013-11-05T03:30:00Z,30.2513,-88.0778,2.623,26.49,1111122 
DISL,ioos:station:DISL:DISL:1,2013-11-05T04:00:00Z,30.2513,-88.0778,2.664,26.85,1111122 
DISL,ioos:station:DISL:DISL:1,2013-11-05T04:30:00Z,30.2513,-88.0778,2.709,27.96,1111122 
DISL,ioos:station:DISL:DISL:1,2013-11-05T05:00:00Z,30.2513,-88.0778,2.685,27.06,1111122 
DISL,ioos:station:DISL:DISL:1,2013-11-05T05:30:00Z,30.2513,-88.0778,2.647,26.32,1111122 
DISL,ioos:station:DISL:DISL:1,2013-11-05T06:00:00Z,30.2513,-88.0778,2.671,27.21,1111122 
DISL,ioos:station:DISL:DISL:1,2013-11-05T06:30:00Z,30.2513,-88.0778,2.682,28.24,1111122 
DISL,ioos:station:DISL:DISL:1,2013-11-05T07:00:00Z,30.2513,-88.0778,2.642,28.72,1111122 
DISL,ioos:station:DISL:DISL:1,2013-11-05T07:30:00Z,30.2513,-88.0778,2.666,28.56,1111122 
DISL,ioos:station:DISL:DISL:1,2013-11-05T08:00:00Z,30.2513,-88.0778,2.5,27.81,1111122 
DISL,ioos:station:DISL:DISL:1,2013-11-05T08:30:00Z,30.2513,-88.0778,2.571,26.81,1111122 
DISL,ioos:station:DISL:DISL:1,2013-11-05T09:00:00Z,30.2513,-88.0778,2.69,26.11,1111122 
DISL,ioos:station:DISL:DISL:1,2013-11-05T09:30:00Z,30.2513,-88.0778,2.647,25.59,1111122 
DISL,ioos:station:DISL:DISL:1,2013-11-05T10:00:00Z,30.2513,-88.0778,2.461,25.37,1111122 
DISL,ioos:station:DISL:DISL:1,2013-11-05T10:30:00Z,30.2513,-88.0778,2.505,25.39,1111122 
DISL,ioos:station:DISL:DISL:1,2013-11-05T11:00:00Z,30.2513,-88.0778,2.303,25.44,1111122 
DISL,ioos:station:DISL:DISL:1,2013-11-05T11:30:00Z,30.2513,-88.0778,2.203,25.67,1111122 
DISL,ioos:station:DISL:DISL:1,2013-11-05T12:00:00Z,30.2513,-88.0778,2.462,25.67,1111122 
DISL,ioos:station:DISL:DISL:1,2013-11-05T12:30:00Z,30.2513,-88.0778,2.295,25.62,1111122 
DISL,ioos:station:DISL:DISL:1,2013-11-05T13:00:00Z,30.2513,-88.0778,2.307,25.59,1111122 
DISL,ioos:station:DISL:DISL:1,2013-11-05T13:30:00Z,30.2513,-88.0778,2.406,25.64,1111122 
DISL,ioos:station:DISL:DISL:1,2013-11-05T14:00:00Z,30.2513,-88.0778,2.388,25.96,1111122 
DISL,ioos:station:DISL:DISL:1,2013-11-05T14:30:00Z,30.2513,-88.0778,2.313,26.94,1111122 
DISL,ioos:station:DISL:DISL:1,2013-11-05T15:00:00Z,30.2513,-88.0778,2.246,29.0,1111122 
DISL,ioos:station:DISL:DISL:1,2013-11-05T15:30:00Z,30.2513,-88.0778,2.224,30.57,1111122 
DISL,ioos:station:DISL:DISL:1,2013-11-05T16:00:00Z,30.2513,-88.0778,2.215,30.83,1111122 
DISL,ioos:station:DISL:DISL:1,2013-11-05T16:30:00Z,30.2513,-88.0778,2.163,32.03,1111122 
DISL,ioos:station:DISL:DISL:1,2013-11-05T17:00:00Z,30.2513,-88.0778,2.185,32.22,1111122 
DISL,ioos:station:DISL:DISL:1,2013-11-05T17:30:00Z,30.2513,-88.0778,2.169,31.49,1111122 
DISL,ioos:station:DISL:DISL:1,2013-11-05T18:00:00Z,30.2513,-88.0778,2.164,32.07,1111122 
DISL,ioos:station:DISL:DISL:1,2013-11-05T18:30:00Z,30.2513,-88.0778,2.159,31.73,1111122 
DISL,ioos:station:DISL:DISL:1,2013-11-05T19:00:00Z,30.2513,-88.0778,2.183,31.3,1111122 
DISL,ioos:station:DISL:DISL:1,2013-11-05T19:30:00Z,30.2513,-88.0778,2.192,31.14,1111122 
DISL,ioos:station:DISL:DISL:1,2013-11-05T20:00:00Z,30.2513,-88.0778,2.234,30.87,1111122 
DISL,ioos:station:DISL:DISL:1,2013-11-05T20:30:00Z,30.2513,-88.0778,2.245,30.67,1111122 
DISL,ioos:station:DISL:DISL:1,2013-11-05T21:00:00Z,30.2513,-88.0778,2.227,30.37,1111122 
DISL,ioos:station:DISL:DISL:1,2013-11-05T21:30:00Z,30.2513,-88.0778,2.245,31.05,1111122 
DISL,ioos:station:DISL:DISL:1,2013-11-05T22:00:00Z,30.2513,-88.0778,2.29,30.71,1111122 
DISL,ioos:station:DISL:DISL:1,2013-11-05T22:30:00Z,30.2513,-88.0778,2.361,31.01,1111122 
DISL,ioos:station:DISL:DISL:1,2013-11-05T23:00:00Z,30.2513,-88.0778,2.381,31.22,1111122 
DISL,ioos:station:DISL:DISL:1,2013-11-05T23:30:00Z,30.2513,-88.0778,2.416,30.57,1111122 
DISL,ioos:station:DISL:DISL:1,2013-11-06T00:00:00Z,30.2513,-88.0778,2.47,30.26,1111122 
DISL,ioos:station:DISL:DISL:1,2013-11-06T00:30:00Z,30.2513,-88.0778,2.467,29.74,1111122 
DISL,ioos:station:DISL:DISL:1,2013-11-06T01:00:00Z,30.2513,-88.0778,2.519,29.26,1111122 
DISL,ioos:station:DISL:DISL:1,2013-11-06T01:30:00Z,30.2513,-88.0778,2.538,29.23,1111122 
DISL,ioos:station:DISL:DISL:1,2013-11-06T02:00:00Z,30.2513,-88.0778,2.593,29.05,1111122 
DISL,ioos:station:DISL:DISL:1,2013-11-06T02:30:00Z,30.2513,-88.0778,2.636,29.31,1111122 
DISL,ioos:station:DISL:DISL:1,2013-11-06T03:00:00Z,30.2513,-88.0778,2.68,30.08,1111122 
DISL,ioos:station:DISL:DISL:1,2013-11-06T03:30:00Z,30.2513,-88.0778,2.655,30.61,1111122 
DISL,ioos:station:DISL:DISL:1,2013-11-06T04:00:00Z,30.2513,-88.0778,2.652,31.22,1111122 
DISL,ioos:station:DISL:DISL:1,2013-11-06T04:30:00Z,30.2513,-88.0778,2.67,30.92,1111122 
DISL,ioos:station:DISL:DISL:1,2013-11-06T05:00:00Z,30.2513,-88.0778,2.747,30.95,1111122 
DISL,ioos:station:DISL:DISL:1,2013-11-06T05:30:00Z,30.2513,-88.0778,2.677,31.12,1111122 
DISL,ioos:station:DISL:DISL:1,2013-11-06T06:00:00Z,30.2513,-88.0778,2.674,29.67,1111122 
DISL,ioos:station:DISL:DISL:1,2013-11-06T06:30:00Z,30.2513,-88.0778,2.669,30.02,1111122 
DISL,ioos:station:DISL:DISL:1,2013-11-06T07:00:00Z,30.2513,-88.0778,2.665,29.45,1111122 
DISL,ioos:station:DISL:DISL:1,2013-11-06T07:30:00Z,30.2513,-88.0778,2.661,29.69,1111122 
DISL,ioos:station:DISL:DISL:1,2013-11-06T08:00:00Z,30.2513,-88.0778,2.633,29.76,1111122 
DISL,ioos:station:DISL:DISL:1,2013-11-06T08:30:00Z,30.2513,-88.0778,2.552,29.75,1111122 
DISL,ioos:station:DISL:DISL:1,2013-11-06T09:00:00Z,30.2513,-88.0778,2.555,29.52,1111122 
DISL,ioos:station:DISL:DISL:1,2013-11-06T09:30:00Z,30.2513,-88.0778,2.53,29.55,1111122 
DISL,ioos:station:DISL:DISL:1,2013-11-06T10:00:00Z,30.2513,-88.0778,2.536,30.08,1111122 
DISL,ioos:station:DISL:DISL:1,2013-11-06T10:30:00Z,30.2513,-88.0778,2.48,29.4,1111122 
DISL,ioos:station:DISL:DISL:1,2013-11-06T11:00:00Z,30.2513,-88.0778,2.443,28.8,1111122 
DISL,ioos:station:DISL:DISL:1,2013-11-06T11:30:00Z,30.2513,-88.0778,2.421,28.3,1111122 
DISL,ioos:station:DISL:DISL:1,2013-11-06T12:00:00Z,30.2513,-88.0778,2.404,28.15,1111122 
DISL,ioos:station:DISL:DISL:1,2013-11-06T12:30:00Z,30.2513,-88.0778,2.41,28.05,1111122 
DISL,ioos:station:DISL:DISL:1,2013-11-06T13:00:00Z,30.2513,-88.0778,2.296,27.89,1111122 
DISL,ioos:station:DISL:DISL:1,2013-11-06T13:30:00Z,30.2513,-88.0778,2.311,27.77,1111122 
DISL,ioos:station:DISL:DISL:1,2013-11-06T14:00:00Z,30.2513,-88.0778,2.276,27.45,1111122 